Miscellaneous Local Product
Issued by NWS Hastings, NE

Home | Current Version | Previous Version | Text Only | Print | Product List | Glossary Off
Versions: 1 2 3 4 5 6 7 8 9 10 11 12 13 14 15 16 17 18 19 20 21 22 23 24 25 26 27 28 29 30 31 32 33 34 35 36 37 38 39 40 41 42 43 44 45 46 47 48 49 50

000
AXUS43 KGID 210902
MISGRI

GID CWA HOURLY WEATHER ROUNDUP
NATIONAL WEATHER SERVICE HASTINGS NE
400 AM CDT MON AUG 21 2017

NOTE: "FAIR" INDICATES FEW OR NO CLOUDS BELOW 12,000 FEET WITH NO
SIGNIFICANT WEATHER AND/OR OBSTRUCTIONS TO VISIBILITY.

...SOUTH CENTRAL NEBRASKA...

CITY           SKY/WX    TMP DP  RH WIND       PRES   REMARKS
GRAND ISLAND   CLOUDY    73  70  90 SW7       29.93S
HASTINGS       CLEAR     74  68  81 S7        29.94S
KEARNEY        CLEAR     71  67  87 SW5       29.93F
ORD            MOCLDY    66  64  93 N6        29.91F
YORK           PTCLDY    75  72  88 S9        29.92S
AURORA         PTCLDY    73  70  89 S8        29.92S
LEXINGTON      FOG       68  67  95 NW3       29.94F VSB 1/4
HOLDREGE       PTCLDY    70  64  81 S7        29.94F
HEBRON         CLEAR     77  68  73 S9        29.93S

...NEBRASKA PANHANDLE...

CITY           SKY/WX    TMP DP  RH WIND       PRES   REMARKS
CHADRON        PTCLDY    70  64  81 S7        29.96F
ALLIANCE       FOG       66  66 100 SE7       30.01F VSB 1/4
SCOTTSBLUFF    CLEAR     65  63  93 E6        30.02F
SIDNEY         FOG       62  62 100 S5        30.05S VSB 1/4

...WESTERN AND NORTH CENTRAL NEBRASKA...

CITY           SKY/WX    TMP DP  RH WIND       PRES   REMARKS
VALENTINE      CLEAR     63  60  90 NW3       29.98F
AINSWORTH      CLOUDY    68  68 100 CALM      29.97F FOG
ONEILL         MOCLDY    67  67 100 NE6       29.95F FOG
BROKEN BOW     CLOUDY    70  68  93 CALM      29.95F FOG
IMPERIAL       PTCLDY    67  63  87 S3        29.97F
NORTH PLATTE   CLOUDY    73  72  96 E6        29.96F FOG
MCCOOK         MOCLDY    73  64  73 SW7       29.94F

...EASTERN NEBRASKA...

CITY           SKY/WX    TMP DP  RH WIND       PRES   REMARKS
NORFOLK        PTCLDY    70  67  90 E13       29.95R
SO SIOUX CITY  CLOUDY    68  66  93 S8G20     29.97F
TEKAMAH        CLOUDY    71  62  73 SE9       29.98S
COLUMBUS       CLEAR     69  68  96 NE8       29.94R
ALBION         PTCLDY    69  68  96 E7        29.93R
OMAHA EPPLEY   CLOUDY    71  62  73 E20G30    30.01S
OFFUTT AFB     CLOUDY    68  63  84 NE12      30.00R
MILLARD        CLOUDY    72  64  77 SE8       30.00R
LINCOLN        CLEAR     77  71  82 S7        29.93R
NEBRASKA CITY  CLOUDY    74  74 100 NE9       29.99R
BEATRICE       CLEAR     79  71  76 S9        29.94S
FALLS CITY     CLEAR     79  72  79 S8        29.94R

...NORTHERN KANSAS...

CITY           SKY/WX    TMP DP  RH WIND       PRES   REMARKS
GOODLAND       PTCLDY    66  63  90 S10       30.00S
HILL CITY      CLEAR     77  65  66 S13       29.96F
NORTON         SUNNY     73  59  60 S10       29.94F
PHILLIPSBURG   CLEAR     79  64  61 S12       29.94S
SMITH CENTER   CLOUDY    73  66  78 S8        29.94F
HAYS           PTCLDY    78  65  63 S18G25    29.98S
RUSSELL        CLOUDY    77  66  68 S17G24    29.97S
CONCORDIA      CLEAR     77  69  76 S16       29.94S
SALINA         CLEAR     81  69  67 S15       29.96S
TOPEKA         CLEAR     77  74  90 S6        29.97S



USA.gov is the U.S. government's official web portal to all federal, state and local government web resources and services.